[[{"header":{"parameterUnit":"m.s-1","parameterCategory":1,"la1":30.2991,"la2":30.254,"lo1":-89.0895,"lo2":-89.0444,"dy":0.0017,"dx":0.0017,"nx":28,"ny":28,"refTime":"2025-11-10T09:00:00:Z","depth":0,"parameterNumber":2,"parameterNumberName":"U-component_of_WINDS"},"data":[0,0,0,0,0,0,0,0,0,0,0,0,0,0,0,0,0,0,0,0,0,0,0,0,0,0,0,0,0,0,0,0,0,0,0,0,0,0,0,0,0,0,0,0,0,0,0,0,0,0,0,0,0,0,0,0,0,0,-2.0428,-2.0429,0,-2.046,-2.046,-2.0461,-2.0429,-2.0428,-2.0426,-2.0425,-2.0457,-2.0459,-2.0461,0,0,0,0,0,0,0,0,0,0,0,0,0,-2.034,-2.0342,-2.0428,-2.0429,-2.0429,-2.046,-2.046,-2.0461,-2.0429,-2.0428,-2.0426,-2.0425,-2.0456,-2.0459,-2.0461,0,0,0,0,0,0,0,0,0,0,0,0,0,-2.0376,-2.0343,-2.0428,-2.0417,-2.0416,-2.046,-2.046,-2.0461,-2.0429,-2.0428,-2.0426,-2.0424,-2.0456,-2.0458,-2.0461,-2.0517,0,0,-2.0471,-2.0472,0,0,0,0,0,0,0,0,-2.0374,-2.0379,-2.0418,-2.0418,-2.0417,-2.0439,-2.0441,-2.048,-2.043,-2.0424,-2.0425,-2.0423,-2.0452,-2.0456,-2.0466,-2.0519,-2.052,-2.0471,-2.0473,-2.0474,-2.0475,0,0,0,0,0,0,0,-2.0371,-2.0378,-2.0441,-2.0419,-2.0418,-2.041,-2.0413,-2.0448,-2.0448,-2.0425,-2.0423,-2.0427,-2.0452,-2.0463,-2.0466,-2.0521,-2.0471,-2.0473,-2.0475,-2.0477,-2.0622,-2.0624,0,0,0,0,0,0,-2.037,-2.0376,-2.044,-2.0442,-2.0391,-2.0413,-2.0417,-2.0434,-2.0448,-2.0448,-2.0428,-2.0425,-2.0458,-2.0463,-2.0467,-2.0534,-2.0474,-2.0477,-2.0479,-2.062,-2.0622,-2.0625,0,0,0,0,0,0,-2.0369,-2.0376,-2.0439,-2.0408,-2.0416,-2.0417,-2.0436,-2.0435,-2.0446,-2.0451,-2.0451,-2.044,-2.0457,-2.0463,-2.0505,-2.0534,-2.0478,-2.0481,-2.0618,-2.0621,-2.0624,-2.0667,0,0,0,0,0,0,-2.0366,-2.0376,-2.0397,-2.0409,-2.0417,-2.0477,-2.0438,-2.0437,-2.0452,-2.0448,-2.0461,-2.0462,-2.0456,-2.0501,-2.0508,-2.0537,-2.0483,-2.0615,-2.0619,-2.0623,-2.0663,-2.0671,-2.0679,0,0,0,0,0,-2.0363,-2.0408,-2.0398,-2.0406,-2.0444,-2.0478,-2.0483,-2.0476,-2.0454,-2.0475,-2.0478,-2.0461,-2.053,-2.0506,-2.0514,-2.0544,-2.0613,-2.0618,-2.0622,-2.066,-2.067,-2.0678,0,0,0,0,0,0,-2.0399,-2.0409,-2.0399,-2.0449,-2.0463,-2.0473,-2.0499,-2.0487,-2.0507,-2.0503,-2.0493,-2.0496,-2.0541,-2.0547,-2.0519,-2.0599,-2.0568,-2.0574,-2.0594,-2.0603,-2.0611,-2.0608,-2.0486,0,0,0,0,0,-2.0413,-2.044,-2.0447,-2.0491,-2.0499,-2.0498,-2.0513,-2.0506,-2.052,-2.0526,-2.0532,-2.0546,-2.0571,-2.0587,-2.0611,-2.0664,-2.0667,-2.0689,-2.0697,-2.0703,-2.0708,-2.0737,-2.0747,-2.064,-2.064,-2.064,0,0,-2.0442,-2.0451,-2.0468,-2.0498,-2.0509,-2.0537,-2.0503,-2.0534,-2.0555,-2.0531,-2.0571,-2.0576,-2.0591,-2.064,-2.0661,-2.0646,-2.0739,-2.0709,-2.0714,-2.0716,-2.0743,-2.0753,-2.0762,-2.0643,-2.0642,-2.0642,0,0,-2.0508,-2.0518,-2.0555,-2.0567,-2.0583,-2.0582,-2.0591,-2.0603,-2.0606,-2.0646,-2.0628,-2.0653,-2.0696,-2.0708,-2.0719,-2.0791,-2.0776,-2.0799,-2.0839,-2.0867,-2.0876,-2.0883,-2.0909,-2.0918,-2.0805,-2.0805,-2.0805,0,-2.0542,-2.0584,-2.0576,-2.0609,-2.0623,-2.0602,-2.064,-2.0651,-2.0674,-2.0684,-2.0666,-2.072,-2.0729,-2.078,-2.0797,-2.0808,-2.0817,-2.0797,-2.0875,-2.0882,-2.0889,-2.0914,-2.0923,-2.0808,-2.0807,-2.0807,-2.0807,0,-2.0625,-2.0654,-2.0682,-2.0705,-2.0722,-2.0757,-2.0755,-2.0773,-2.0765,-2.0767,-2.0808,-2.0818,-2.0843,-2.0855,-2.0847,-2.0905,-2.0895,-2.0877,-2.0845,-2.0902,-2.0925,-2.0934,-2.0811,-2.081,-2.081,-2.0809,0,0,-2.0714,-2.0733,-2.0743,-2.0754,-2.077,-2.0793,-2.0827,-2.0852,-2.0868,-2.0884,-2.0913,-2.095,-2.0933,-2.0946,-2.094,-2.0965,-2.1022,-2.0943,-2.0944,-2.0957,-2.1086,-2.1099,-2.111,-2.1012,-2.1014,-2.1015,-2.1084,0,-2.0781,-2.0841,-2.0835,-2.0892,-2.0919,-2.0901,-2.0931,-2.0944,-2.0946,-2.097,-2.0972,-2.0999,-2.0975,-2.0982,-2.1006,-2.101,-2.1047,-2.1005,-2.1038,-2.1039,-2.1035,-2.1122,-2.1136,-2.1201,-2.1093,-2.1095,-2.1096,0,-2.0867,-2.0888,-2.0947,-2.096,-2.0971,-2.0998,-2.1021,-2.1043,-2.1058,-2.1058,-2.1073,-2.1063,-2.1097,-2.1066,-2.1113,-2.1084,-2.1098,-2.1102,-2.1104,-2.1106,-2.1071,-2.1127,-2.1222,-2.1231,-2.111,-2.1108,-2.1107,0,-2.0927,-2.0969,-2.101,-2.1019,-2.1035,-2.1055,-2.1062,-2.1075,-2.1091,-2.111,-2.112,-2.1144,-2.1156,-2.1175,-2.1171,-2.1148,-2.1219,-2.1187,-2.122,-2.122,-2.1236,-2.1235,-2.1334,-2.1245,-2.1245,-2.1245,-2.1244,0,-2.1002,-2.1039,-2.1037,-2.1062,-2.1103,-2.1097,-2.1137,-2.1143,-2.1155,-2.118,-2.1166,-2.119,-2.1184,-2.1208,-2.1206,-2.1245,-2.1251,-2.1252,-2.1251,-2.1253,-2.1253,-2.1262,-2.1257,-2.1247,-2.1247,-2.1246,-2.1246,0,-2.1075,-2.1075,-2.1119,-2.1131,-2.1134,-2.1164,-2.1174,-2.1198,-2.12,-2.1233,-2.124,-2.1242,-2.127,-2.1268,-2.13,-2.1298,-2.1347,-2.1341,-2.1342,-2.1341,-2.1374,-2.1371,-2.1482,-2.1496,-2.1398,-2.1399,-2.14,0,-2.1123,-2.1151,-2.1167,-2.1183,-2.1192,-2.1219,-2.1235,-2.1229,-2.1246,-2.1266,-2.1287,-2.1314,-2.1335,-2.1381,-2.1385,-2.1409,-2.1403,-2.144,-2.1406,-2.1408,-2.1403,-2.1402,-2.1404,-2.1447,-2.1448,-2.1449,-2.1449,0,-2.1208,-2.1207,-2.123,-2.1254,-2.1274,-2.1292,-2.1309,-2.1323,-2.1319,-2.1339,-2.1368,-2.1384,-2.1417,-2.1444,-2.1467,-2.1474,-2.1461,-2.146,-2.1469,-2.1472,-2.1471,-2.1472,-2.136,-2.1457,-2.1457,-2.1456,-2.1456,-2.1455,-2.127,-2.1294,-2.1309,-2.1336,-2.1348,-2.1364,-2.1387,-2.1392,-2.1416,-2.1442,-2.1437,-2.147,-2.1484,-2.1514,-2.1524,-2.1549,-2.1535,-2.1548,-2.1551,-2.1555,-2.1558,-2.1468,-2.1553,-2.1553,-2.1553,-2.1552,-2.1552,0,-2.1354,-2.1363,-2.1388,-2.1412,-2.1433,-2.142,-2.1438,-2.1456,-2.1485,-2.1499,-2.1521,-2.1554,-2.158,-2.1587,-2.1612,-2.163,-2.1625,-2.1637,-2.1635,-2.1637,-2.1569,-2.1559,-2.1641,-2.1641,-2.1641,-2.1641,-2.1641,-2.1641,-2.14,-2.1441,-2.1442,-2.1488,-2.1496,-2.1528,-2.154,-2.1554,-2.1566,-2.1604,-2.1626,-2.163,-2.1642,-2.1667,-2.1691,-2.1692,-2.1702,-2.1716,-2.1715,-2.1651,-2.1642,-2.1634,-2.1624,-2.1718,-2.1719,-2.1781,-2.1782,-2.1782]},{"header":{"parameterUnit":"m.s-1","parameterCategory":1,"la1":30.2991,"la2":30.254,"lo1":-89.0895,"lo2":-89.0444,"dy":0.0017,"dx":0.0017,"nx":28,"ny":28,"refTime":"2025-11-10T09:00:00:Z","depth":0,"parameterNumber":3,"parameterNumberName":"V-component_of_WINDS"},"data":[0,0,0,0,0,0,0,0,0,0,0,0,0,0,0,0,0,0,0,0,0,0,0,0,0,0,0,0,0,0,0,0,0,0,0,0,0,0,0,0,0,0,0,0,0,0,0,0,0,0,0,0,0,0,0,0,0,0,-2.1515,-2.1515,0,-2.1548,-2.1548,-2.1548,-2.1511,-2.151,-2.1508,-2.1507,-2.154,-2.1542,-2.1544,0,0,0,0,0,0,0,0,0,0,0,0,0,-2.1419,-2.1421,-2.1515,-2.1515,-2.1516,-2.1548,-2.1548,-2.1549,-2.1511,-2.151,-2.1508,-2.1506,-2.1539,-2.1542,-2.1545,0,0,0,0,0,0,0,0,0,0,0,0,0,-2.1457,-2.1422,-2.1515,-2.1501,-2.15,-2.1548,-2.1548,-2.1549,-2.1512,-2.151,-2.1507,-2.1505,-2.1539,-2.1542,-2.1545,-2.1608,0,0,-2.1555,-2.1556,0,0,0,0,0,0,0,0,-2.1455,-2.1461,-2.1503,-2.1502,-2.1501,-2.1523,-2.1526,-2.1568,-2.1512,-2.1507,-2.1507,-2.1504,-2.1536,-2.1539,-2.155,-2.1609,-2.161,-2.1555,-2.1557,-2.1559,-2.156,0,0,0,0,0,0,0,-2.1453,-2.1459,-2.1528,-2.1503,-2.1502,-2.1493,-2.1496,-2.1534,-2.1533,-2.1508,-2.1505,-2.1509,-2.1535,-2.1547,-2.1551,-2.1611,-2.1555,-2.1558,-2.156,-2.1561,-2.1723,-2.1725,0,0,0,0,0,0,-2.1452,-2.1457,-2.1527,-2.1529,-2.1473,-2.1496,-2.15,-2.1518,-2.1533,-2.1533,-2.1511,-2.1507,-2.1543,-2.1547,-2.1552,-2.1626,-2.1559,-2.1562,-2.1564,-2.172,-2.1723,-2.1726,0,0,0,0,0,0,-2.145,-2.1458,-2.1525,-2.1492,-2.15,-2.15,-2.1521,-2.152,-2.1532,-2.1535,-2.1535,-2.1524,-2.1541,-2.1547,-2.1594,-2.1627,-2.1563,-2.1566,-2.1718,-2.1721,-2.1724,-2.1776,0,0,0,0,0,0,-2.1447,-2.1458,-2.1482,-2.1493,-2.1502,-2.1568,-2.1523,-2.1522,-2.1538,-2.1533,-2.1547,-2.1547,-2.154,-2.1589,-2.1597,-2.163,-2.1569,-2.1715,-2.1719,-2.1723,-2.1771,-2.178,-2.1788,0,0,0,0,0,-2.1444,-2.1495,-2.1483,-2.1492,-2.1532,-2.157,-2.1575,-2.1565,-2.154,-2.1564,-2.1567,-2.1547,-2.1622,-2.1594,-2.1603,-2.1638,-2.1713,-2.1718,-2.1723,-2.1767,-2.1779,-2.1788,0,0,0,0,0,0,-2.1487,-2.1496,-2.1483,-2.1539,-2.1554,-2.1563,-2.1593,-2.1578,-2.16,-2.1595,-2.1582,-2.1586,-2.1636,-2.1641,-2.161,-2.1699,-2.1663,-2.167,-2.1694,-2.1705,-2.1713,-2.1711,-2.1572,0,0,0,0,0,-2.1503,-2.1533,-2.1539,-2.1588,-2.1596,-2.1593,-2.1609,-2.1601,-2.1615,-2.1621,-2.1627,-2.1642,-2.1669,-2.1687,-2.1712,-2.1771,-2.1774,-2.1799,-2.1808,-2.1815,-2.1822,-2.1854,-2.1865,-2.1743,-2.1743,-2.1743,0,0,-2.1537,-2.1545,-2.1565,-2.1597,-2.1607,-2.1638,-2.1599,-2.1633,-2.1656,-2.1627,-2.1671,-2.1676,-2.1691,-2.1745,-2.1769,-2.1751,-2.1856,-2.1822,-2.1827,-2.183,-2.186,-2.1872,-2.1882,-2.1746,-2.1746,-2.1745,0,0,-2.1614,-2.1623,-2.1665,-2.1676,-2.1692,-2.169,-2.17,-2.1712,-2.1714,-2.1758,-2.1737,-2.1764,-2.181,-2.1822,-2.1835,-2.1916,-2.1898,-2.1924,-2.197,-2.2002,-2.2011,-2.202,-2.2049,-2.206,-2.1931,-2.1931,-2.1931,0,-2.1653,-2.17,-2.1688,-2.1725,-2.1739,-2.1714,-2.1756,-2.1767,-2.1791,-2.1802,-2.1781,-2.1839,-2.1848,-2.1904,-2.1924,-2.1934,-2.1946,-2.1923,-2.2011,-2.2019,-2.2027,-2.2055,-2.2066,-2.1934,-2.1933,-2.1933,-2.1933,0,-2.1748,-2.178,-2.1812,-2.1835,-2.1854,-2.1893,-2.1887,-2.1907,-2.1897,-2.1897,-2.1943,-2.1952,-2.1978,-2.1991,-2.1981,-2.2046,-2.2034,-2.2013,-2.1977,-2.2042,-2.2068,-2.2079,-2.1938,-2.1937,-2.1936,-2.1935,0,0,-2.1854,-2.187,-2.1882,-2.1893,-2.1909,-2.1933,-2.1971,-2.1997,-2.2014,-2.2031,-2.2062,-2.2102,-2.2082,-2.2096,-2.2087,-2.2115,-2.2179,-2.209,-2.209,-2.2107,-2.2252,-2.2269,-2.2281,-2.2167,-2.2169,-2.2171,-2.2251,0,-2.1931,-2.1997,-2.1988,-2.2051,-2.2081,-2.2057,-2.209,-2.2103,-2.2104,-2.2129,-2.213,-2.2159,-2.213,-2.2138,-2.2164,-2.2166,-2.2208,-2.216,-2.2197,-2.2198,-2.2195,-2.2295,-2.2313,-2.2387,-2.2261,-2.2262,-2.2264,0,-2.2031,-2.2052,-2.2118,-2.213,-2.2142,-2.2172,-2.2195,-2.2219,-2.2233,-2.2232,-2.2247,-2.2234,-2.2271,-2.2234,-2.2286,-2.2253,-2.2267,-2.2271,-2.2273,-2.2277,-2.2236,-2.2302,-2.2411,-2.2423,-2.2279,-2.2278,-2.2277,0,-2.2103,-2.2147,-2.2193,-2.2202,-2.2216,-2.2238,-2.2245,-2.2257,-2.2273,-2.2293,-2.2303,-2.2327,-2.2341,-2.236,-2.2353,-2.2326,-2.2406,-2.2368,-2.2406,-2.2407,-2.2425,-2.2424,-2.2539,-2.2433,-2.2433,-2.2433,-2.2432,0,-2.2191,-2.2233,-2.2225,-2.2253,-2.2299,-2.2288,-2.2334,-2.2337,-2.2348,-2.2377,-2.2357,-2.2384,-2.2373,-2.2399,-2.2393,-2.2437,-2.2443,-2.2443,-2.2442,-2.2446,-2.2446,-2.2456,-2.2451,-2.2436,-2.2435,-2.2434,-2.2434,0,-2.2279,-2.2276,-2.2324,-2.2333,-2.2336,-2.237,-2.2378,-2.2404,-2.2403,-2.2439,-2.2447,-2.2445,-2.2475,-2.247,-2.2503,-2.2499,-2.2554,-2.2546,-2.255,-2.2548,-2.2587,-2.2584,-2.2713,-2.2729,-2.2612,-2.2613,-2.2614,0,-2.2336,-2.2368,-2.2381,-2.2398,-2.2407,-2.2435,-2.2452,-2.2442,-2.246,-2.2478,-2.2502,-2.253,-2.2552,-2.2601,-2.2603,-2.2628,-2.262,-2.2664,-2.2624,-2.2627,-2.2622,-2.262,-2.2624,-2.2672,-2.2673,-2.2674,-2.2675,0,-2.2438,-2.2435,-2.2459,-2.2484,-2.2504,-2.2523,-2.2539,-2.2555,-2.2546,-2.2567,-2.2597,-2.2614,-2.2648,-2.2676,-2.27,-2.2706,-2.269,-2.2687,-2.2698,-2.2703,-2.2704,-2.2705,-2.2572,-2.2685,-2.2684,-2.2683,-2.2683,-2.2682,-2.2513,-2.254,-2.2553,-2.2581,-2.2593,-2.2609,-2.2634,-2.2636,-2.2661,-2.2688,-2.268,-2.2715,-2.2728,-2.2758,-2.2767,-2.2794,-2.2778,-2.2793,-2.2796,-2.2801,-2.2806,-2.2699,-2.2798,-2.2798,-2.2797,-2.2797,-2.2797,0,-2.2614,-2.2622,-2.2648,-2.2672,-2.2694,-2.2676,-2.2693,-2.2713,-2.2744,-2.2757,-2.278,-2.2814,-2.2842,-2.2846,-2.2871,-2.2892,-2.2885,-2.2899,-2.2898,-2.29,-2.2818,-2.2807,-2.2904,-2.2904,-2.2904,-2.2904,-2.2904,-2.2904,-2.267,-2.2715,-2.2713,-2.2763,-2.277,-2.2804,-2.2816,-2.283,-2.2841,-2.2881,-2.2904,-2.2906,-2.2916,-2.2942,-2.2966,-2.2967,-2.2977,-2.2995,-2.2992,-2.2916,-2.2906,-2.2895,-2.2885,-2.2997,-2.2997,-2.3072,-2.3073,-2.3073]}]]